[[{"header":{"parameterUnit":"m.s-1","parameterCategory":1,"la1":30.2991,"la2":30.254,"lo1":-89.0895,"lo2":-89.0444,"dy":0.0017,"dx":0.0017,"nx":28,"ny":28,"refTime":"2024-02-21T03:00:00:Z","depth":0,"parameterNumber":2,"parameterNumberName":"U-component_of_WINDS"},"data":[0,0,0,0,0,0,0,0,0,0,0,0,0,0,0,0,0,0,0,0,0,0,0,0,0,0,0,0,0,0,0,0,0,0,0,0,0,0,0,0,0,0,0,0,0,0,0,0,0,0,0,0,0,0,0,0,0,0,-1.1503,-1.1503,0,-1.157,-1.1571,-1.1572,-1.1588,-1.1587,-1.1587,-1.1586,-1.1657,-1.1659,-1.1661,0,0,0,0,0,0,0,0,0,0,0,0,0,-1.139,-1.1392,-1.1503,-1.1504,-1.1504,-1.157,-1.1571,-1.1572,-1.1588,-1.1587,-1.1587,-1.1586,-1.1656,-1.1659,-1.1661,0,0,0,0,0,0,0,0,0,0,0,0,0,-1.1446,-1.1393,-1.1503,-1.152,-1.1522,-1.157,-1.1571,-1.1572,-1.1588,-1.1587,-1.1586,-1.1586,-1.1655,-1.1658,-1.1662,-1.1697,0,0,-1.1672,-1.1674,0,0,0,0,0,0,0,0,-1.1443,-1.1451,-1.1517,-1.1519,-1.1522,-1.157,-1.1557,-1.1614,-1.1588,-1.1563,-1.1586,-1.1585,-1.1628,-1.1634,-1.1648,-1.17,-1.1703,-1.1673,-1.1675,-1.1676,-1.1677,0,0,0,0,0,0,0,-1.1439,-1.1448,-1.1529,-1.1518,-1.1521,-1.1526,-1.1533,-1.1568,-1.1599,-1.1565,-1.1566,-1.1574,-1.163,-1.1645,-1.165,-1.1704,-1.1672,-1.1676,-1.1678,-1.1679,-1.1789,-1.179,0,0,0,0,0,0,-1.1432,-1.1444,-1.1527,-1.1531,-1.148,-1.1528,-1.1536,-1.1555,-1.1598,-1.1604,-1.1575,-1.1575,-1.1639,-1.1646,-1.1652,-1.1696,-1.1676,-1.1679,-1.1681,-1.1788,-1.1789,-1.179,0,0,0,0,0,0,-1.143,-1.1439,-1.1525,-1.1488,-1.15,-1.1531,-1.1552,-1.1557,-1.1572,-1.1606,-1.1611,-1.1584,-1.1639,-1.1648,-1.1686,-1.1699,-1.1681,-1.1684,-1.1787,-1.1789,-1.179,-1.1785,0,0,0,0,0,0,-1.1426,-1.1438,-1.1451,-1.1488,-1.1501,-1.1556,-1.1553,-1.1559,-1.1578,-1.1578,-1.1616,-1.1622,-1.1639,-1.1681,-1.1689,-1.1704,-1.1687,-1.1786,-1.1788,-1.179,-1.1784,-1.1786,-1.1787,0,0,0,0,0,-1.1422,-1.1447,-1.1452,-1.1462,-1.1518,-1.1557,-1.1564,-1.1583,-1.1579,-1.1592,-1.1614,-1.1621,-1.1697,-1.1684,-1.1694,-1.171,-1.1786,-1.1788,-1.1789,-1.1783,-1.1785,-1.1787,0,0,0,0,0,0,-1.1411,-1.1452,-1.1458,-1.1496,-1.1522,-1.1559,-1.1577,-1.1585,-1.1614,-1.1613,-1.1636,-1.1644,-1.1681,-1.17,-1.1685,-1.1747,-1.1741,-1.1745,-1.1733,-1.1735,-1.1737,-1.1731,-1.169,0,0,0,0,0,-1.1413,-1.144,-1.1475,-1.1505,-1.1518,-1.1545,-1.1563,-1.1575,-1.1604,-1.1616,-1.164,-1.1669,-1.1699,-1.1718,-1.1748,-1.1787,-1.1796,-1.1803,-1.1805,-1.1806,-1.1809,-1.1831,-1.1835,-1.1797,-1.1797,-1.1797,0,0,-1.1417,-1.1443,-1.1459,-1.1503,-1.1526,-1.1554,-1.1555,-1.1584,-1.1606,-1.162,-1.1657,-1.1677,-1.171,-1.1749,-1.1767,-1.1765,-1.1821,-1.1808,-1.1809,-1.1811,-1.1833,-1.1837,-1.184,-1.1798,-1.1798,-1.1798,0,0,-1.1439,-1.1461,-1.1489,-1.1511,-1.1545,-1.1563,-1.1569,-1.1606,-1.1619,-1.1657,-1.1668,-1.1695,-1.1746,-1.177,-1.1788,-1.1821,-1.1828,-1.183,-1.1838,-1.186,-1.1863,-1.1866,-1.1877,-1.1881,-1.1833,-1.1833,-1.1833,0,-1.144,-1.1482,-1.1502,-1.1531,-1.1551,-1.1565,-1.1594,-1.1615,-1.1657,-1.167,-1.1668,-1.1733,-1.1757,-1.1801,-1.1809,-1.1824,-1.1833,-1.1825,-1.1861,-1.1864,-1.1867,-1.1878,-1.1882,-1.1833,-1.1833,-1.1833,-1.1833,0,-1.1481,-1.1511,-1.1529,-1.1569,-1.1591,-1.1619,-1.1644,-1.1664,-1.1675,-1.1694,-1.1733,-1.1762,-1.1798,-1.181,-1.1821,-1.1857,-1.1854,-1.1856,-1.1851,-1.187,-1.1881,-1.1885,-1.1833,-1.1833,-1.1833,-1.1833,0,0,-1.1496,-1.1548,-1.1554,-1.1572,-1.1611,-1.1635,-1.1665,-1.17,-1.1716,-1.1746,-1.1771,-1.1816,-1.1818,-1.1839,-1.1853,-1.1872,-1.1896,-1.1872,-1.1873,-1.1875,-1.1937,-1.1935,-1.1939,-1.1902,-1.1903,-1.1903,-1.1934,0,-1.1523,-1.1575,-1.1595,-1.1639,-1.1666,-1.1682,-1.1708,-1.1735,-1.1754,-1.1781,-1.1802,-1.1833,-1.1833,-1.1846,-1.1866,-1.1889,-1.1909,-1.1887,-1.1926,-1.1927,-1.1916,-1.1945,-1.1942,-1.197,-1.1939,-1.1939,-1.194,0,-1.156,-1.1589,-1.1635,-1.1671,-1.1683,-1.1706,-1.174,-1.1766,-1.1798,-1.181,-1.1834,-1.1848,-1.1881,-1.1874,-1.192,-1.1905,-1.1923,-1.1937,-1.1938,-1.1942,-1.1934,-1.1949,-1.1979,-1.1983,-1.1947,-1.1946,-1.1946,0,-1.1565,-1.1616,-1.1651,-1.1666,-1.1709,-1.1725,-1.1744,-1.1775,-1.1795,-1.1825,-1.1839,-1.1873,-1.1891,-1.1918,-1.194,-1.1934,-1.1984,-1.198,-1.1996,-1.1995,-1.2004,-1.2003,-1.2038,-1.2017,-1.2017,-1.2017,-1.2017,0,-1.1592,-1.162,-1.1654,-1.1675,-1.1707,-1.173,-1.1761,-1.1781,-1.1809,-1.1834,-1.185,-1.1874,-1.1903,-1.1931,-1.1949,-1.1985,-1.1993,-1.2004,-1.2009,-1.2002,-1.2001,-1.2013,-1.2012,-1.2018,-1.2018,-1.2018,-1.2018,0,-1.1603,-1.1627,-1.1665,-1.1703,-1.1714,-1.1735,-1.1768,-1.179,-1.181,-1.1842,-1.1851,-1.1883,-1.1917,-1.1942,-1.1987,-1.1999,-1.2037,-1.2041,-1.2025,-1.2027,-1.2041,-1.2039,-1.2084,-1.2091,-1.2067,-1.2067,-1.2067,0,-1.1618,-1.1639,-1.168,-1.1698,-1.1716,-1.1746,-1.1766,-1.179,-1.1811,-1.185,-1.1867,-1.1902,-1.1931,-1.1985,-1.2012,-1.2047,-1.2052,-1.2065,-1.2057,-1.205,-1.2051,-1.2049,-1.2052,-1.2066,-1.2066,-1.2066,-1.2066,0,-1.1642,-1.1653,-1.1681,-1.1714,-1.1738,-1.1765,-1.1793,-1.1807,-1.1837,-1.186,-1.1894,-1.1917,-1.1963,-1.1997,-1.2034,-1.2055,-1.2066,-1.2069,-1.2074,-1.2067,-1.2057,-1.2062,-1.2028,-1.2067,-1.2067,-1.2067,-1.2067,-1.2067,-1.1655,-1.1675,-1.1706,-1.1738,-1.1761,-1.1787,-1.1809,-1.1832,-1.1861,-1.1899,-1.1912,-1.1948,-1.1981,-1.2031,-1.2053,-1.2082,-1.2082,-1.2089,-1.2091,-1.2093,-1.2092,-1.2053,-1.2089,-1.2089,-1.2089,-1.2089,-1.2089,0,-1.1679,-1.17,-1.1729,-1.1767,-1.1792,-1.18,-1.1831,-1.1852,-1.1883,-1.1912,-1.1941,-1.1981,-1.2015,-1.2046,-1.2081,-1.2099,-1.2105,-1.2108,-1.2106,-1.2111,-1.209,-1.2081,-1.2102,-1.2102,-1.2102,-1.2102,-1.2102,-1.2102,-1.1694,-1.1728,-1.1743,-1.1789,-1.1811,-1.1845,-1.1863,-1.1887,-1.191,-1.1954,-1.1983,-1.2002,-1.2032,-1.2071,-1.2103,-1.2111,-1.2123,-1.2124,-1.2134,-1.2114,-1.2112,-1.211,-1.2102,-1.2127,-1.2127,-1.2152,-1.2152,-1.2152]},{"header":{"parameterUnit":"m.s-1","parameterCategory":1,"la1":30.2991,"la2":30.254,"lo1":-89.0895,"lo2":-89.0444,"dy":0.0017,"dx":0.0017,"nx":28,"ny":28,"refTime":"2024-02-21T03:00:00:Z","depth":0,"parameterNumber":3,"parameterNumberName":"V-component_of_WINDS"},"data":[0,0,0,0,0,0,0,0,0,0,0,0,0,0,0,0,0,0,0,0,0,0,0,0,0,0,0,0,0,0,0,0,0,0,0,0,0,0,0,0,0,0,0,0,0,0,0,0,0,0,0,0,0,0,0,0,0,0,3.7402,3.7403,0,3.7471,3.7472,3.7473,3.745,3.7449,3.7447,3.7446,3.751,3.7513,3.7516,0,0,0,0,0,0,0,0,0,0,0,0,0,3.7246,3.7249,3.7402,3.7403,3.7404,3.7471,3.7472,3.7473,3.745,3.7449,3.7447,3.7445,3.7509,3.7512,3.7516,0,0,0,0,0,0,0,0,0,0,0,0,0,3.7314,3.725,3.7402,3.7401,3.7401,3.7471,3.7472,3.7473,3.7451,3.7449,3.7446,3.7444,3.7507,3.7512,3.7516,3.7589,0,0,3.753,3.7532,0,0,0,0,0,0,0,0,3.731,3.732,3.74,3.7401,3.7402,3.745,3.744,3.7512,3.7451,3.7432,3.7446,3.7443,3.7491,3.7497,3.7514,3.7592,3.7594,3.7531,3.7534,3.7536,3.7537,0,0,0,0,0,0,0,3.7306,3.7317,3.7429,3.7401,3.7402,3.7395,3.7403,3.7454,3.7473,3.7433,3.7432,3.7441,3.7491,3.751,3.7516,3.7595,3.7531,3.7535,3.7538,3.7539,3.7739,3.7741,0,0,0,0,0,0,3.7301,3.7313,3.7427,3.7431,3.735,3.74,3.7408,3.7437,3.7472,3.7476,3.7443,3.744,3.7503,3.751,3.7518,3.7607,3.7536,3.754,3.7542,3.7736,3.7739,3.7742,0,0,0,0,0,0,3.7298,3.7312,3.7424,3.7372,3.7386,3.7405,3.7437,3.7439,3.7458,3.7479,3.7482,3.7459,3.7502,3.7511,3.7573,3.7609,3.7542,3.7546,3.7733,3.7737,3.7741,3.7785,0,0,0,0,0,0,3.7294,3.7311,3.7339,3.7373,3.7389,3.7479,3.7439,3.7442,3.7467,3.7464,3.7495,3.7498,3.7501,3.7566,3.7577,3.7614,3.755,3.773,3.7735,3.7739,3.778,3.779,3.7798,0,0,0,0,0,3.7288,3.7346,3.7341,3.7354,3.7425,3.7481,3.749,3.7494,3.747,3.7498,3.7513,3.7497,3.7603,3.7572,3.7585,3.7624,3.7728,3.7734,3.7739,3.7776,3.7788,3.7798,0,0,0,0,0,0,3.7313,3.7351,3.7344,3.7416,3.7446,3.7477,3.7513,3.7505,3.7541,3.7536,3.7537,3.7544,3.7608,3.7621,3.7586,3.7697,3.7662,3.767,3.7686,3.7697,3.7706,3.7701,3.7553,0,0,0,0,0,3.7327,3.7372,3.7401,3.7461,3.7477,3.7493,3.7517,3.7518,3.7548,3.756,3.7578,3.7606,3.7646,3.7672,3.771,3.7783,3.779,3.7816,3.7824,3.7832,3.7839,3.7881,3.7893,3.7761,3.7761,3.7761,0,0,3.7356,3.7382,3.7409,3.7467,3.749,3.7536,3.7503,3.7551,3.7585,3.7566,3.7627,3.7641,3.7673,3.7741,3.7772,3.7754,3.7877,3.7839,3.7844,3.7848,3.7888,3.79,3.7912,3.7765,3.7764,3.7763,0,0,3.7432,3.7456,3.751,3.7536,3.7573,3.7584,3.7597,3.7631,3.7641,3.7702,3.769,3.7729,3.7797,3.7821,3.7842,3.7932,3.792,3.7944,3.799,3.8031,3.8041,3.805,3.8084,3.8096,3.7951,3.7951,3.7951,0,3.7462,3.7532,3.7538,3.7589,3.7615,3.7605,3.766,3.7683,3.773,3.7748,3.7728,3.7817,3.7836,3.7911,3.7934,3.7951,3.7966,3.794,3.804,3.8049,3.8058,3.809,3.8102,3.7954,3.7954,3.7953,3.7953,0,3.7568,3.7617,3.7656,3.7706,3.7736,3.7788,3.7802,3.7832,3.7831,3.7844,3.7907,3.7932,3.7976,3.7994,3.7991,3.8069,3.8058,3.8039,3.8003,3.8073,3.8103,3.8115,3.7958,3.7957,3.7956,3.7955,0,0,3.7659,3.7715,3.7729,3.7754,3.7796,3.7833,3.7885,3.7931,3.7958,3.7991,3.8035,3.8095,3.808,3.8104,3.8104,3.814,3.8213,3.8117,3.8118,3.8135,3.8302,3.8316,3.833,3.8205,3.8207,3.8209,3.83,0,3.7739,3.7835,3.7844,3.7929,3.7975,3.7968,3.8013,3.8044,3.8058,3.8098,3.8112,3.8156,3.813,3.8146,3.8181,3.8196,3.8246,3.819,3.8246,3.8248,3.8239,3.8346,3.8361,3.8445,3.8311,3.8313,3.8315,0,3.7846,3.7887,3.7978,3.8018,3.8037,3.8078,3.8123,3.8162,3.8196,3.8204,3.8234,3.8231,3.8284,3.8247,3.8322,3.8283,3.8307,3.8318,3.8322,3.8327,3.8286,3.8355,3.8471,3.8484,3.8333,3.8332,3.833,0,3.7905,3.7983,3.8048,3.8068,3.8116,3.8146,3.8166,3.8199,3.8228,3.8266,3.8285,3.8328,3.8351,3.8385,3.8393,3.8365,3.8468,3.8431,3.8476,3.8476,3.8497,3.8496,3.862,3.8511,3.8511,3.8511,3.8511,0,3.7995,3.8051,3.8076,3.8116,3.8179,3.8189,3.8251,3.8269,3.83,3.8343,3.8338,3.8378,3.8387,3.8428,3.8435,3.8497,3.8507,3.8514,3.8515,3.8515,3.8515,3.8531,3.8525,3.8514,3.8514,3.8513,3.8512,0,3.8071,3.809,3.8162,3.8203,3.8214,3.8259,3.8293,3.8331,3.8346,3.8401,3.8414,3.8436,3.8486,3.8498,3.8555,3.856,3.8634,3.8629,3.8623,3.8623,3.8667,3.8664,3.8806,3.8826,3.8704,3.8705,3.8706,0,3.8127,3.8171,3.8218,3.8249,3.8272,3.832,3.8351,3.8363,3.8394,3.844,3.8473,3.8522,3.8562,3.8641,3.8661,3.8706,3.8703,3.875,3.8709,3.8709,3.8705,3.8703,3.8708,3.8757,3.8759,3.876,3.8761,0,3.8225,3.8234,3.828,3.833,3.8368,3.8407,3.8444,3.8468,3.8486,3.8521,3.8574,3.8606,3.8667,3.8716,3.8762,3.8782,3.8774,3.8774,3.8787,3.8787,3.8783,3.8787,3.8645,3.877,3.8769,3.8769,3.8768,3.8768,3.8294,3.8334,3.8376,3.8427,3.8458,3.8494,3.8533,3.8555,3.86,3.8653,3.8657,3.8714,3.875,3.8812,3.8834,3.8879,3.8864,3.8882,3.8887,3.8891,3.8896,3.8776,3.8886,3.8886,3.8886,3.8886,3.8886,0,3.8394,3.8421,3.8469,3.8524,3.8565,3.8558,3.86,3.8635,3.8686,3.8722,3.8763,3.8825,3.8873,3.8899,3.8947,3.8978,3.8976,3.899,3.8988,3.8993,3.8906,3.8891,3.8991,3.8991,3.8991,3.8991,3.8991,3.8991,3.845,3.8519,3.8533,3.8617,3.8643,3.8702,3.8727,3.876,3.8789,3.8859,3.8901,3.8919,3.8951,3.9002,3.9047,3.9053,3.9071,3.9088,3.9092,3.901,3.8999,3.8989,3.8975,3.9092,3.9092,3.9176,3.9177,3.9178]}]]